Year,Month,Day,Hour,Minute,Value (Times are PST for temperature in C)
2020,10,25,00,00,3.40
2020,10,25,00,01,3.40
2020,10,25,00,02,3.40
2020,10,25,00,03,3.40
2020,10,25,00,04,3.40
2020,10,25,00,05,3.40
2020,10,25,00,06,3.40
2020,10,25,00,07,3.40
2020,10,25,00,08,3.40
2020,10,25,00,09,3.30
2020,10,25,00,10,3.30
2020,10,25,00,11,3.30
2020,10,25,00,12,3.30
2020,10,25,00,13,3.30
2020,10,25,00,14,3.30
2020,10,25,00,15,3.30
2020,10,25,00,16,3.30
2020,10,25,00,17,3.30
2020,10,25,00,18,3.30
2020,10,25,00,19,3.30
2020,10,25,00,20,3.30
2020,10,25,00,21,3.30
2020,10,25,00,22,3.30
2020,10,25,00,23,3.30
2020,10,25,00,24,3.30
2020,10,25,00,25,3.30
2020,10,25,00,26,3.20
2020,10,25,00,27,3.20
2020,10,25,00,28,3.20
2020,10,25,00,29,3.20
2020,10,25,00,30,3.20
2020,10,25,00,31,3.20
2020,10,25,00,32,3.20
2020,10,25,00,33,3.10
2020,10,25,00,34,3.10
2020,10,25,00,35,3.10
2020,10,25,00,36,3.10
2020,10,25,00,37,3.10
2020,10,25,00,38,3.10
2020,10,25,00,39,3.10
2020,10,25,00,40,3.10
2020,10,25,00,41,3.10
2020,10,25,00,42,3.10
2020,10,25,00,43,3.10
2020,10,25,00,44,3.10
2020,10,25,00,45,3.00
2020,10,25,00,46,3.00
2020,10,25,00,47,3.00
2020,10,25,00,48,3.00
2020,10,25,00,49,3.00
2020,10,25,00,50,3.00
2020,10,25,00,51,3.00
2020,10,25,00,52,3.00
2020,10,25,00,53,3.00
2020,10,25,00,54,3.00
2020,10,25,00,55,2.90
2020,10,25,00,56,2.90
2020,10,25,00,57,2.90
2020,10,25,00,58,2.90
2020,10,25,00,59,2.90
2020,10,25,01,00,3.00
2020,10,25,01,01,3.00
2020,10,25,01,02,3.00
2020,10,25,01,03,3.00
2020,10,25,01,04,3.00
2020,10,25,01,05,3.00
2020,10,25,01,06,3.00
2020,10,25,01,07,3.00
2020,10,25,01,08,3.00
2020,10,25,01,09,2.90
2020,10,25,01,10,2.90
2020,10,25,01,11,2.90
2020,10,25,01,12,2.90
2020,10,25,01,13,2.90
2020,10,25,01,14,2.90
2020,10,25,01,15,2.90
2020,10,25,01,16,2.80
2020,10,25,01,17,2.80
2020,10,25,01,18,2.80
2020,10,25,01,19,2.80
2020,10,25,01,20,2.80
2020,10,25,01,21,2.90
2020,10,25,01,22,2.90
2020,10,25,01,23,2.90
2020,10,25,01,24,2.90
2020,10,25,01,25,2.90
2020,10,25,01,26,2.90
2020,10,25,01,27,2.90
2020,10,25,01,28,2.90
2020,10,25,01,29,2.90
2020,10,25,01,30,2.90
2020,10,25,01,31,2.90
2020,10,25,01,32,2.90
2020,10,25,01,33,2.90
2020,10,25,01,34,2.90
2020,10,25,01,35,2.90
2020,10,25,01,36,2.90
2020,10,25,01,37,2.90
2020,10,25,01,38,2.90
2020,10,25,01,39,2.90
2020,10,25,01,40,2.90
2020,10,25,01,41,2.90
2020,10,25,01,42,2.90
2020,10,25,01,43,2.90
2020,10,25,01,44,2.90
2020,10,25,01,45,2.90
2020,10,25,01,46,2.90
2020,10,25,01,47,2.90
2020,10,25,01,48,2.90
2020,10,25,01,49,2.90
2020,10,25,01,50,2.90
2020,10,25,01,51,2.80
2020,10,25,01,52,2.80
2020,10,25,01,53,2.80
2020,10,25,01,54,2.80
2020,10,25,01,55,2.80
2020,10,25,01,56,2.80
2020,10,25,01,57,2.90
2020,10,25,01,58,2.90
2020,10,25,01,59,2.90
2020,10,25,02,00,2.90
2020,10,25,02,01,2.90
2020,10,25,02,02,2.90
2020,10,25,02,03,2.90
2020,10,25,02,04,2.90
2020,10,25,02,05,2.90
2020,10,25,02,06,2.90
2020,10,25,02,07,2.90
2020,10,25,02,08,2.90
2020,10,25,02,09,2.80
2020,10,25,02,10,2.80
2020,10,25,02,11,2.80
2020,10,25,02,12,2.80
2020,10,25,02,13,2.80
2020,10,25,02,14,2.80
2020,10,25,02,15,2.80
2020,10,25,02,16,2.90
2020,10,25,02,17,2.90
2020,10,25,02,18,2.90
2020,10,25,02,19,2.90
2020,10,25,02,20,2.90
2020,10,25,02,21,2.90
2020,10,25,02,22,2.90
2020,10,25,02,23,2.90
2020,10,25,02,24,2.90
2020,10,25,02,25,2.90
2020,10,25,02,26,2.90
2020,10,25,02,27,2.90
2020,10,25,02,28,2.90
2020,10,25,02,29,2.80
2020,10,25,02,30,2.80
2020,10,25,02,31,2.80
2020,10,25,02,32,2.80
2020,10,25,02,33,2.80
2020,10,25,02,34,2.80
2020,10,25,02,35,2.80
2020,10,25,02,36,2.80
2020,10,25,02,37,2.80
2020,10,25,02,38,2.80
2020,10,25,02,39,2.80
2020,10,25,02,40,2.80
2020,10,25,02,41,2.80
2020,10,25,02,42,2.80
2020,10,25,02,43,2.80
2020,10,25,02,44,2.80
2020,10,25,02,45,2.80
2020,10,25,02,46,2.80
2020,10,25,02,47,2.80
2020,10,25,02,48,2.80
2020,10,25,02,49,2.80
2020,10,25,02,50,2.80
2020,10,25,02,51,2.80
2020,10,25,02,52,2.80
2020,10,25,02,53,2.80
2020,10,25,02,54,2.80
2020,10,25,02,55,2.80
2020,10,25,02,56,2.80
2020,10,25,02,57,2.70
2020,10,25,02,58,2.70
2020,10,25,02,59,2.70
2020,10,25,03,00,2.70
2020,10,25,03,01,2.70
2020,10,25,03,02,2.70
2020,10,25,03,03,2.70
2020,10,25,03,04,2.70
2020,10,25,03,05,2.70
2020,10,25,03,06,2.70
2020,10,25,03,07,2.80
2020,10,25,03,08,2.80
2020,10,25,03,09,2.80
2020,10,25,03,10,2.80
2020,10,25,03,11,2.80
2020,10,25,03,12,2.80
2020,10,25,03,13,2.80
2020,10,25,03,14,2.80
2020,10,25,03,15,2.80
2020,10,25,03,16,2.80
2020,10,25,03,17,2.80
2020,10,25,03,18,2.80
2020,10,25,03,19,2.80
2020,10,25,03,20,2.80
2020,10,25,03,21,2.80
2020,10,25,03,22,2.80
2020,10,25,03,23,2.80
2020,10,25,03,24,2.80
2020,10,25,03,25,2.80
2020,10,25,03,26,2.80
2020,10,25,03,27,2.80
2020,10,25,03,28,2.80
2020,10,25,03,29,2.80
2020,10,25,03,30,2.80
2020,10,25,03,31,2.80
2020,10,25,03,32,2.80
2020,10,25,03,33,2.80
2020,10,25,03,34,2.80
2020,10,25,03,35,2.80
2020,10,25,03,36,2.80
2020,10,25,03,37,2.80
2020,10,25,03,38,2.80
2020,10,25,03,39,2.70
2020,10,25,03,40,2.70
2020,10,25,03,41,2.70
2020,10,25,03,42,2.70
2020,10,25,03,43,2.80
2020,10,25,03,44,2.80
2020,10,25,03,45,2.80
2020,10,25,03,46,2.80
2020,10,25,03,47,2.80
2020,10,25,03,48,2.80
2020,10,25,03,49,2.80
2020,10,25,03,50,2.80
2020,10,25,03,51,2.80
2020,10,25,03,52,2.80
2020,10,25,03,53,2.70
2020,10,25,03,54,2.70
2020,10,25,03,55,2.70
2020,10,25,03,56,2.70
2020,10,25,03,57,2.70
2020,10,25,03,58,2.70
2020,10,25,03,59,2.70
2020,10,25,04,00,2.70
2020,10,25,04,01,2.70
2020,10,25,04,02,2.70
2020,10,25,04,03,2.70
2020,10,25,04,04,2.70
2020,10,25,04,05,2.70
2020,10,25,04,06,2.70
2020,10,25,04,07,2.70
2020,10,25,04,08,2.70
2020,10,25,04,09,2.70
2020,10,25,04,10,2.70
2020,10,25,04,11,2.70
2020,10,25,04,12,2.60
2020,10,25,04,13,2.60
2020,10,25,04,14,2.70
2020,10,25,04,15,2.70
2020,10,25,04,16,2.70
2020,10,25,04,17,2.70
2020,10,25,04,18,2.70
2020,10,25,04,19,2.60
2020,10,25,04,20,2.70
2020,10,25,04,21,2.70
2020,10,25,04,22,2.70
2020,10,25,04,23,2.70
2020,10,25,04,24,2.70
2020,10,25,04,25,2.70
2020,10,25,04,26,2.70
2020,10,25,04,27,2.70
2020,10,25,04,28,2.70
2020,10,25,04,29,2.70
2020,10,25,04,30,2.70
2020,10,25,04,31,2.70
2020,10,25,04,32,2.70
2020,10,25,04,33,2.60
2020,10,25,04,34,2.60
2020,10,25,04,35,2.60
2020,10,25,04,36,2.60
2020,10,25,04,37,2.60
2020,10,25,04,38,2.60
2020,10,25,04,39,2.60
2020,10,25,04,40,2.50
2020,10,25,04,41,2.50
2020,10,25,04,42,2.50
2020,10,25,04,43,2.50
2020,10,25,04,44,2.50
2020,10,25,04,45,2.50
2020,10,25,04,46,2.50
2020,10,25,04,47,2.50
2020,10,25,04,48,2.50
2020,10,25,04,49,2.50
2020,10,25,04,50,2.50
2020,10,25,04,51,2.50
2020,10,25,04,52,2.50
2020,10,25,04,53,2.50
2020,10,25,04,54,2.50
2020,10,25,04,55,2.50
2020,10,25,04,56,2.50
2020,10,25,04,57,2.50
2020,10,25,04,58,2.50
2020,10,25,04,59,2.60
2020,10,25,05,00,2.60
2020,10,25,05,01,2.60
2020,10,25,05,02,2.60
2020,10,25,05,03,2.60
2020,10,25,05,04,2.60
2020,10,25,05,05,2.50
2020,10,25,05,06,2.50
2020,10,25,05,07,2.50
2020,10,25,05,08,2.40
2020,10,25,05,09,2.40
2020,10,25,05,10,2.40
2020,10,25,05,11,2.40
2020,10,25,05,12,2.40
2020,10,25,05,13,2.40
2020,10,25,05,14,2.40
2020,10,25,05,15,2.40
2020,10,25,05,16,2.40
2020,10,25,05,17,2.40
2020,10,25,05,18,2.30
2020,10,25,05,19,2.30
2020,10,25,05,20,2.30
2020,10,25,05,21,2.30
2020,10,25,05,22,2.30
2020,10,25,05,23,2.30
2020,10,25,05,24,2.30
2020,10,25,05,25,2.30
2020,10,25,05,26,2.30
2020,10,25,05,27,2.20
2020,10,25,05,28,2.20
2020,10,25,05,29,2.20
2020,10,25,05,30,2.30
2020,10,25,05,31,2.30
2020,10,25,05,32,2.30
2020,10,25,05,33,2.30
2020,10,25,05,34,2.30
2020,10,25,05,35,2.30
2020,10,25,05,36,2.30
2020,10,25,05,37,2.40
2020,10,25,05,38,2.40
2020,10,25,05,39,2.40
2020,10,25,05,40,2.40
2020,10,25,05,41,2.40
2020,10,25,05,42,2.40
2020,10,25,05,43,2.40
2020,10,25,05,44,2.40
2020,10,25,05,45,2.40
2020,10,25,05,46,2.40
2020,10,25,05,47,2.40
2020,10,25,05,48,2.40
2020,10,25,05,49,2.30
2020,10,25,05,50,2.30
2020,10,25,05,51,2.30
2020,10,25,05,52,2.30
2020,10,25,05,53,2.20
2020,10,25,05,54,2.20
2020,10,25,05,55,2.20
2020,10,25,05,56,2.20
2020,10,25,05,57,2.20
2020,10,25,05,58,2.20
2020,10,25,05,59,2.20
2020,10,25,06,00,2.30
2020,10,25,06,01,2.30
2020,10,25,06,02,2.30
2020,10,25,06,03,2.30
2020,10,25,06,04,2.30
2020,10,25,06,05,2.30
2020,10,25,06,06,2.30
2020,10,25,06,07,2.30
2020,10,25,06,08,2.30
2020,10,25,06,09,2.30
2020,10,25,06,10,2.30
2020,10,25,06,11,2.40
2020,10,25,06,12,2.40
2020,10,25,06,13,2.40
2020,10,25,06,14,2.40
2020,10,25,06,15,2.40
2020,10,25,06,16,2.40
2020,10,25,06,17,2.30
2020,10,25,06,18,2.30
2020,10,25,06,19,2.30
2020,10,25,06,20,2.30
2020,10,25,06,21,2.30
2020,10,25,06,22,2.30
2020,10,25,06,23,2.30
2020,10,25,06,24,2.30
2020,10,25,06,25,2.30
2020,10,25,06,26,2.30
2020,10,25,06,27,2.30
2020,10,25,06,28,2.30
2020,10,25,06,29,2.30
2020,10,25,06,30,2.30
2020,10,25,06,31,2.30
2020,10,25,06,32,2.30
2020,10,25,06,33,2.20
2020,10,25,06,34,2.30
2020,10,25,06,35,2.20
2020,10,25,06,36,2.20
2020,10,25,06,37,2.20
2020,10,25,06,38,2.20
2020,10,25,06,39,2.20
2020,10,25,06,40,2.10
2020,10,25,06,41,2.10
2020,10,25,06,42,2.10
2020,10,25,06,43,2.10
2020,10,25,06,44,2.00
2020,10,25,06,45,2.00
2020,10,25,06,46,2.00
2020,10,25,06,47,1.90
2020,10,25,06,48,1.90
2020,10,25,06,49,1.90
2020,10,25,06,50,1.80
2020,10,25,06,51,1.80
2020,10,25,06,52,1.80
2020,10,25,06,53,1.70
2020,10,25,06,54,1.70
2020,10,25,06,55,1.60
2020,10,25,06,56,1.60
2020,10,25,06,57,1.50
2020,10,25,06,58,1.50
2020,10,25,06,59,1.40
2020,10,25,07,00,1.30
2020,10,25,07,01,1.30
2020,10,25,07,02,1.20
2020,10,25,07,03,1.10
2020,10,25,07,04,1.00
2020,10,25,07,05,0.80
2020,10,25,07,06,0.80
2020,10,25,07,07,0.60
2020,10,25,07,08,0.50
2020,10,25,07,09,0.40
2020,10,25,07,10,0.30
2020,10,25,07,11,0.20
2020,10,25,07,12,0.20
2020,10,25,07,13,0.00
2020,10,25,07,14,0.00
2020,10,25,07,15,-0.20
2020,10,25,07,16,-0.20
2020,10,25,07,17,-0.20
2020,10,25,07,18,-0.20
2020,10,25,07,19,-0.20
2020,10,25,07,20,-0.20
2020,10,25,07,21,-0.20
2020,10,25,07,22,-0.20
2020,10,25,07,23,-0.20
2020,10,25,07,24,-0.20
2020,10,25,07,25,-0.20
2020,10,25,12,13,4.80
2020,10,25,12,14,4.90
2020,10,25,12,15,4.90
2020,10,25,12,16,4.90
2020,10,25,12,17,4.80
2020,10,25,12,18,4.80
2020,10,25,12,19,4.80
2020,10,25,12,20,4.80
2020,10,25,12,21,4.80
2020,10,25,12,22,4.80
2020,10,25,12,23,4.80
2020,10,25,12,24,4.90
2020,10,25,12,25,4.90
2020,10,25,12,26,4.90
2020,10,25,12,27,4.90
2020,10,25,12,28,5.00
2020,10,25,12,29,5.00
2020,10,25,12,30,5.10
2020,10,25,12,31,5.10
2020,10,25,12,32,5.10
2020,10,25,12,33,5.20
2020,10,25,12,34,5.20
2020,10,25,12,35,5.20
2020,10,25,12,36,5.20
2020,10,25,12,37,5.30
2020,10,25,12,38,5.30
2020,10,25,12,39,5.30
2020,10,25,12,40,5.30
2020,10,25,12,41,5.30
2020,10,25,12,42,5.30
2020,10,25,12,43,5.30
2020,10,25,12,44,5.40
2020,10,25,12,45,5.40
2020,10,25,12,46,5.50
2020,10,25,12,47,5.50
2020,10,25,12,48,5.60
2020,10,25,12,49,5.60
2020,10,25,12,50,5.60
2020,10,25,12,51,5.60
2020,10,25,12,52,5.60
2020,10,25,12,53,5.60
2020,10,25,12,54,5.60
2020,10,25,12,55,5.60
2020,10,25,12,56,5.60
2020,10,25,12,57,5.60
2020,10,25,12,58,5.60
2020,10,25,12,59,5.60
2020,10,25,13,00,5.60
2020,10,25,13,01,5.60
2020,10,25,13,02,5.70
2020,10,25,13,03,5.70
2020,10,25,13,04,5.80
2020,10,25,13,05,5.80
2020,10,25,13,06,5.80
2020,10,25,13,07,5.80
2020,10,25,13,08,5.80
2020,10,25,13,09,5.80
2020,10,25,13,10,5.80
2020,10,25,13,11,5.80
2020,10,25,13,12,5.80
2020,10,25,13,13,5.80
2020,10,25,13,14,5.80
2020,10,25,13,15,5.80
2020,10,25,13,16,5.80
2020,10,25,13,17,5.80
2020,10,25,13,18,5.80
2020,10,25,13,19,5.80
2020,10,25,13,20,5.80
2020,10,25,13,21,5.80
2020,10,25,13,22,5.80
2020,10,25,13,23,5.80
2020,10,25,13,24,5.80
2020,10,25,13,25,5.80
2020,10,25,13,26,5.80
2020,10,25,13,27,5.80
2020,10,25,13,28,5.80
2020,10,25,13,29,5.80
2020,10,25,13,30,5.80
2020,10,25,13,31,5.80
2020,10,25,13,32,5.80
2020,10,25,13,33,5.80
2020,10,25,13,34,5.80
2020,10,25,13,35,5.80
2020,10,25,13,36,5.80
2020,10,25,13,37,5.80
2020,10,25,13,38,5.80
2020,10,25,13,39,5.80
2020,10,25,13,40,5.80
2020,10,25,13,41,5.80
2020,10,25,13,42,5.80
2020,10,25,13,43,5.80
2020,10,25,13,44,5.80
2020,10,25,13,45,5.80
2020,10,25,13,46,5.80
2020,10,25,13,47,5.80
2020,10,25,13,48,5.80
2020,10,25,13,49,5.90
2020,10,25,13,50,5.90
2020,10,25,13,51,5.90
2020,10,25,13,52,6.00
2020,10,25,13,53,6.00
2020,10,25,13,54,6.10
2020,10,25,13,55,6.10
2020,10,25,13,56,6.10
2020,10,25,13,57,6.10
2020,10,25,13,58,6.10
2020,10,25,13,59,6.10
2020,10,25,14,00,6.10
2020,10,25,14,01,6.10
2020,10,25,14,02,6.20
2020,10,25,14,03,6.20
2020,10,25,14,04,6.20
2020,10,25,14,05,6.20
2020,10,25,14,06,6.20
2020,10,25,14,07,6.20
2020,10,25,14,08,6.20
2020,10,25,14,09,6.20
2020,10,25,14,10,6.20
2020,10,25,14,11,6.20
2020,10,25,14,12,6.20
2020,10,25,14,13,6.20
2020,10,25,14,14,6.20
2020,10,25,14,15,6.20
2020,10,25,14,16,6.20
2020,10,25,14,17,6.20
2020,10,25,14,18,6.20
2020,10,25,14,19,6.20
2020,10,25,14,20,6.20
2020,10,25,14,21,6.20
2020,10,25,14,22,6.30
2020,10,25,14,23,6.30
2020,10,25,14,24,6.30
2020,10,25,14,25,6.30
2020,10,25,14,26,6.30
2020,10,25,14,27,6.20
2020,10,25,14,28,6.20
2020,10,25,14,29,6.20
2020,10,25,14,30,6.20
2020,10,25,14,31,6.20
2020,10,25,14,32,6.20
2020,10,25,14,33,6.20
2020,10,25,14,34,6.20
2020,10,25,14,35,6.20
2020,10,25,14,36,6.20
2020,10,25,14,37,6.20
2020,10,25,14,38,6.30
2020,10,25,14,39,6.30
2020,10,25,14,40,6.30
2020,10,25,14,41,6.30
2020,10,25,14,42,6.30
2020,10,25,14,43,6.30
2020,10,25,14,44,6.40
2020,10,25,14,45,6.40
2020,10,25,14,46,6.40
2020,10,25,14,47,6.40
2020,10,25,14,48,6.40
2020,10,25,14,49,6.40
2020,10,25,14,50,6.40
2020,10,25,14,51,6.30
2020,10,25,14,52,6.30
2020,10,25,14,53,6.30
2020,10,25,14,54,6.30
2020,10,25,14,55,6.30
2020,10,25,14,56,6.30
2020,10,25,14,57,6.30
2020,10,25,14,58,6.30
2020,10,25,14,59,6.20
2020,10,25,15,00,6.20
2020,10,25,15,01,6.20
2020,10,25,15,02,6.20
2020,10,25,15,03,6.10
2020,10,25,15,04,6.10
2020,10,25,15,05,6.10
2020,10,25,15,06,6.10
2020,10,25,15,07,6.10
2020,10,25,15,08,6.10
2020,10,25,15,09,6.00
2020,10,25,15,10,6.10
2020,10,25,15,11,6.10
2020,10,25,15,12,6.10
2020,10,25,15,13,6.10
2020,10,25,15,14,6.10
2020,10,25,15,15,6.10
2020,10,25,15,16,6.10
2020,10,25,15,17,6.10
2020,10,25,15,18,6.10
2020,10,25,15,19,6.20
2020,10,25,15,20,6.20
2020,10,25,15,21,6.20
2020,10,25,15,22,6.30
2020,10,25,15,23,6.30
2020,10,25,15,24,6.30
2020,10,25,15,25,6.30
2020,10,25,15,26,6.40
2020,10,25,15,27,6.40
2020,10,25,15,28,6.40
2020,10,25,15,29,6.40
2020,10,25,15,30,6.40
2020,10,25,15,31,6.50
2020,10,25,15,32,6.50
2020,10,25,15,33,6.50
2020,10,25,15,34,6.60
2020,10,25,15,35,6.60
2020,10,25,15,36,6.60
2020,10,25,15,37,6.60
2020,10,25,15,38,6.60
2020,10,25,15,39,6.70
2020,10,25,15,40,6.70
2020,10,25,15,41,6.60
2020,10,25,15,42,6.60
2020,10,25,15,43,6.60
2020,10,25,15,44,6.60
2020,10,25,15,45,6.60
2020,10,25,15,46,6.60
2020,10,25,15,47,6.60
2020,10,25,15,48,6.60
2020,10,25,15,49,6.60
2020,10,25,15,50,6.70
2020,10,25,15,51,6.70
2020,10,25,15,52,6.70
2020,10,25,15,53,6.80
2020,10,25,15,54,6.80
2020,10,25,15,55,6.80
2020,10,25,15,56,6.80
2020,10,25,15,57,6.80
2020,10,25,15,58,6.80
2020,10,25,15,59,6.80
2020,10,25,16,00,6.80
2020,10,25,16,01,6.80
2020,10,25,16,02,6.80
2020,10,25,16,03,6.80
2020,10,25,16,04,6.80
2020,10,25,16,05,6.80
2020,10,25,16,06,6.80
2020,10,25,16,07,6.80
2020,10,25,16,08,6.80
2020,10,25,16,09,6.80
2020,10,25,16,10,6.80
2020,10,25,16,11,6.70
2020,10,25,16,12,6.70
2020,10,25,16,13,6.70
2020,10,25,16,14,6.70
2020,10,25,16,15,6.70
2020,10,25,16,16,6.70
2020,10,25,16,17,6.60
2020,10,25,16,18,6.60
2020,10,25,16,19,6.60
2020,10,25,16,20,6.50
2020,10,25,16,21,6.50
2020,10,25,16,22,6.50
2020,10,25,16,23,6.50
2020,10,25,16,24,6.40
2020,10,25,16,25,6.40
2020,10,25,16,26,6.50
2020,10,25,16,27,6.50
2020,10,25,16,28,6.50
2020,10,25,16,29,6.40
2020,10,25,16,30,6.40
2020,10,25,16,31,6.40
2020,10,25,16,32,6.40
2020,10,25,16,33,6.40
2020,10,25,16,34,6.40
2020,10,25,16,35,6.40
2020,10,25,16,36,6.40
2020,10,25,16,37,6.40
2020,10,25,16,38,6.40
2020,10,25,16,39,6.30
2020,10,25,16,40,6.30
2020,10,25,16,41,6.30
2020,10,25,16,42,6.20
2020,10,25,16,43,6.20
2020,10,25,16,44,6.20
2020,10,25,16,45,6.20
2020,10,25,16,46,6.10
2020,10,25,16,47,6.10
2020,10,25,16,48,6.10
2020,10,25,16,49,6.10
2020,10,25,16,50,6.10
2020,10,25,16,51,6.00
2020,10,25,16,52,6.00
2020,10,25,16,53,6.00
2020,10,25,16,54,6.00
2020,10,25,16,55,5.90
2020,10,25,16,56,5.90
2020,10,25,16,57,5.90
2020,10,25,16,58,5.80
2020,10,25,16,59,5.80
2020,10,25,17,00,5.80
2020,10,25,17,01,5.80
2020,10,25,17,02,5.80
2020,10,25,17,03,5.70
2020,10,25,17,04,5.70
2020,10,25,17,05,5.70
2020,10,25,17,06,5.70
2020,10,25,17,07,5.60
2020,10,25,17,08,5.60
2020,10,25,17,09,5.60
2020,10,25,17,10,5.50
2020,10,25,17,11,5.50
2020,10,25,17,12,5.50
2020,10,25,17,13,5.40
2020,10,25,17,14,5.40
2020,10,25,17,15,5.40
2020,10,25,17,16,5.40
2020,10,25,17,17,5.40
2020,10,25,17,18,5.30
2020,10,25,17,19,5.30
2020,10,25,17,20,5.30
2020,10,25,17,21,5.30
2020,10,25,17,22,5.30
2020,10,25,17,23,5.30
2020,10,25,17,24,5.30
2020,10,25,17,25,5.20
2020,10,25,17,26,5.20
2020,10,25,17,27,5.20
2020,10,25,17,28,5.20
2020,10,25,17,29,5.20
2020,10,25,17,30,5.20
2020,10,25,17,31,5.10
2020,10,25,17,32,5.10
2020,10,25,17,33,5.00
2020,10,25,17,34,5.00
2020,10,25,17,35,4.90
2020,10,25,17,36,4.90
2020,10,25,17,37,4.90
2020,10,25,17,38,4.80
2020,10,25,17,39,4.80
2020,10,25,17,40,4.80
2020,10,25,17,41,4.80
2020,10,25,17,42,4.70
2020,10,25,17,43,4.70
2020,10,25,17,44,4.70
2020,10,25,17,45,4.70
2020,10,25,17,46,4.70
2020,10,25,17,47,4.60
2020,10,25,17,48,4.60
2020,10,25,17,49,4.60
2020,10,25,17,50,4.50
2020,10,25,17,51,4.50
2020,10,25,17,52,4.40
2020,10,25,17,53,4.40
2020,10,25,17,54,4.30
2020,10,25,17,55,4.30
2020,10,25,17,56,4.30
2020,10,25,17,57,4.20
2020,10,25,17,58,4.20
2020,10,25,17,59,4.10
2020,10,25,18,00,4.10
2020,10,25,18,01,4.10
2020,10,25,18,02,4.10
2020,10,25,18,03,4.00
2020,10,25,18,04,4.00
2020,10,25,18,05,3.90
2020,10,25,18,06,3.90
2020,10,25,18,07,3.80
2020,10,25,18,08,3.80
2020,10,25,18,09,3.80
2020,10,25,18,10,3.70
2020,10,25,18,11,3.70
2020,10,25,18,12,3.70
2020,10,25,18,13,3.70
2020,10,25,18,14,3.60
2020,10,25,18,15,3.60
2020,10,25,18,16,3.60
2020,10,25,18,17,3.50
2020,10,25,18,18,3.50
2020,10,25,18,19,3.50
2020,10,25,18,20,3.40
2020,10,25,18,21,3.40
2020,10,25,18,22,3.40
2020,10,25,18,23,3.40
2020,10,25,18,24,3.30
2020,10,25,18,25,3.30
2020,10,25,18,26,3.30
2020,10,25,18,27,3.20
2020,10,25,18,28,3.20
2020,10,25,18,29,3.20
2020,10,25,18,30,3.10
2020,10,25,18,31,3.10
2020,10,25,18,32,3.10
2020,10,25,18,33,3.10
2020,10,25,18,34,3.00
2020,10,25,18,35,3.00
2020,10,25,18,36,2.90
2020,10,25,18,37,2.90
2020,10,25,18,38,2.80
2020,10,25,18,39,2.80
2020,10,25,18,40,2.80
2020,10,25,18,41,2.80
2020,10,25,18,42,2.70
2020,10,25,18,43,2.70
2020,10,25,18,44,2.70
2020,10,25,18,45,2.70
2020,10,25,18,46,2.60
2020,10,25,18,47,2.60
2020,10,25,18,48,2.60
2020,10,25,18,49,2.60
2020,10,25,18,50,2.50
2020,10,25,18,51,2.50
2020,10,25,18,52,2.40
2020,10,25,18,53,2.40
2020,10,25,18,54,2.40
2020,10,25,18,55,2.30
2020,10,25,18,56,2.30
2020,10,25,18,57,2.30
2020,10,25,18,58,2.20
2020,10,25,18,59,2.20
2020,10,25,19,00,2.20
2020,10,25,19,01,2.10
2020,10,25,19,02,2.10
2020,10,25,19,03,2.00
2020,10,25,19,04,2.00
2020,10,25,19,05,2.00
2020,10,25,19,06,1.90
2020,10,25,19,07,1.90
2020,10,25,19,08,1.80
2020,10,25,19,09,1.80
2020,10,25,19,10,1.80
2020,10,25,19,11,1.80
2020,10,25,19,12,1.70
2020,10,25,19,13,1.70
2020,10,25,19,14,1.70
2020,10,25,19,15,1.70
2020,10,25,19,16,1.70
2020,10,25,19,17,1.70
2020,10,25,19,18,1.60
2020,10,25,19,19,1.60
2020,10,25,19,20,1.60
2020,10,25,19,21,1.60
2020,10,25,19,22,1.60
2020,10,25,19,23,1.60
2020,10,25,19,24,1.50
2020,10,25,19,25,1.50
2020,10,25,19,26,1.50
2020,10,25,19,27,1.50
2020,10,25,19,28,1.50
2020,10,25,19,29,1.40
2020,10,25,19,30,1.40
2020,10,25,19,31,1.40
2020,10,25,19,32,1.40
2020,10,25,19,33,1.40
2020,10,25,19,34,1.40
2020,10,25,19,35,1.40
2020,10,25,19,36,1.30
2020,10,25,19,37,1.30
2020,10,25,19,38,1.30
2020,10,25,19,39,1.30
2020,10,25,19,40,1.30
2020,10,25,19,41,1.30
2020,10,25,19,42,1.30
2020,10,25,19,43,1.30
2020,10,25,19,44,1.30
2020,10,25,19,45,1.30
2020,10,25,19,46,1.30
2020,10,25,19,47,1.30
2020,10,25,19,48,1.20
2020,10,25,19,49,1.20
2020,10,25,19,50,1.20
2020,10,25,19,51,1.20
2020,10,25,19,52,1.20
2020,10,25,19,53,1.20
2020,10,25,19,54,1.20
2020,10,25,19,55,1.20
2020,10,25,19,56,1.10
2020,10,25,19,57,1.10
2020,10,25,19,58,1.10
2020,10,25,19,59,1.10
2020,10,25,20,00,1.10
2020,10,25,20,01,1.10
2020,10,25,20,02,1.10
2020,10,25,20,03,1.00
2020,10,25,20,04,1.00
2020,10,25,20,05,1.00
2020,10,25,20,06,1.00
2020,10,25,20,07,1.00
2020,10,25,20,08,1.00
2020,10,25,20,09,1.00
2020,10,25,20,10,1.00
2020,10,25,20,11,1.00
2020,10,25,20,12,1.00
2020,10,25,20,13,0.90
2020,10,25,20,14,1.00
2020,10,25,20,15,1.00
2020,10,25,20,16,1.00
2020,10,25,20,17,1.00
2020,10,25,20,18,1.00
2020,10,25,20,19,1.00
2020,10,25,20,20,1.00
2020,10,25,20,21,1.00
2020,10,25,20,22,1.00
2020,10,25,20,23,1.00
2020,10,25,20,24,1.00
2020,10,25,20,25,1.00
2020,10,25,20,26,1.00
2020,10,25,20,27,1.00
2020,10,25,20,28,1.00
2020,10,25,20,29,1.00
2020,10,25,20,30,1.00
2020,10,25,20,31,1.00
2020,10,25,20,32,1.00
2020,10,25,20,33,1.10
2020,10,25,20,34,1.10
2020,10,25,20,35,1.10
2020,10,25,20,36,1.10
2020,10,25,20,37,1.10
2020,10,25,20,38,1.10
2020,10,25,20,39,1.10
2020,10,25,20,40,1.10
2020,10,25,20,41,1.10
2020,10,25,20,42,1.10
2020,10,25,20,43,1.10
2020,10,25,20,44,1.10
2020,10,25,20,45,1.10
2020,10,25,20,46,1.10
2020,10,25,20,47,1.10
2020,10,25,20,48,1.10
2020,10,25,20,49,1.10
2020,10,25,20,50,1.10
2020,10,25,20,51,1.00
2020,10,25,20,52,1.00
2020,10,25,20,53,1.00
2020,10,25,20,54,1.00
2020,10,25,20,55,1.00
2020,10,25,20,56,1.00
2020,10,25,20,57,1.00
2020,10,25,20,58,1.00
2020,10,25,20,59,1.00
2020,10,25,21,00,1.00
2020,10,25,21,01,1.00
2020,10,25,21,02,1.00
2020,10,25,21,03,1.10
2020,10,25,21,04,1.10
2020,10,25,21,05,1.10
2020,10,25,21,06,1.10
2020,10,25,21,07,1.10
2020,10,25,21,08,1.10
2020,10,25,21,09,1.10
2020,10,25,21,10,1.10
2020,10,25,21,11,1.10
2020,10,25,21,12,1.10
2020,10,25,21,13,1.10
2020,10,25,21,14,1.10
2020,10,25,21,15,1.20
2020,10,25,21,16,1.10
2020,10,25,21,17,1.10
2020,10,25,21,18,1.10
2020,10,25,21,19,1.10
2020,10,25,21,20,1.10
2020,10,25,21,21,1.20
2020,10,25,21,22,1.10
2020,10,25,21,23,1.10
2020,10,25,21,24,1.20
2020,10,25,21,25,1.20
2020,10,25,21,26,1.20
2020,10,25,21,27,1.20
2020,10,25,21,28,1.20
2020,10,25,21,29,1.20
2020,10,25,21,30,1.20
2020,10,25,21,31,1.20
2020,10,25,21,32,1.20
2020,10,25,21,33,1.20
2020,10,25,21,34,1.20
2020,10,25,21,35,1.20
2020,10,25,21,36,1.20
2020,10,25,21,37,1.20
2020,10,25,21,38,1.20
2020,10,25,21,39,1.20
2020,10,25,21,40,1.20
2020,10,25,21,41,1.20
2020,10,25,21,42,1.20
2020,10,25,21,43,1.20
2020,10,25,21,44,1.20
2020,10,25,21,45,1.20
2020,10,25,21,46,1.20
2020,10,25,21,47,1.20
2020,10,25,21,48,1.20
2020,10,25,21,49,1.20
2020,10,25,21,50,1.20
2020,10,25,21,51,1.30
2020,10,25,21,52,1.30
2020,10,25,21,53,1.30
2020,10,25,21,54,1.30
2020,10,25,21,55,1.30
2020,10,25,21,56,1.30
2020,10,25,21,57,1.30
2020,10,25,21,58,1.30
2020,10,25,21,59,1.30
2020,10,25,22,00,1.30
2020,10,25,22,01,1.30
2020,10,25,22,02,1.30
2020,10,25,22,03,1.30
2020,10,25,22,04,1.30
2020,10,25,22,05,1.30
2020,10,25,22,06,1.30
2020,10,25,22,07,1.40
2020,10,25,22,08,1.40
2020,10,25,22,09,1.40
2020,10,25,22,10,1.40
2020,10,25,22,11,1.40
2020,10,25,22,12,1.40
2020,10,25,22,13,1.40
2020,10,25,22,14,1.40
2020,10,25,22,15,1.40
2020,10,25,22,16,1.40
2020,10,25,22,17,1.40
2020,10,25,22,18,1.40
2020,10,25,22,19,1.50
2020,10,25,22,20,1.50
2020,10,25,22,21,1.50
2020,10,25,22,22,1.50
2020,10,25,22,23,1.50
2020,10,25,22,24,1.50
2020,10,25,22,25,1.60
2020,10,25,22,26,1.60
2020,10,25,22,27,1.60
2020,10,25,22,28,1.60
2020,10,25,22,29,1.60
2020,10,25,22,30,1.60
2020,10,25,22,31,1.60
2020,10,25,22,32,1.60
2020,10,25,22,33,1.60
2020,10,25,22,34,1.60
2020,10,25,22,35,1.60
2020,10,25,22,36,1.70
2020,10,25,22,37,1.70
2020,10,25,22,38,1.70
2020,10,25,22,39,1.70
2020,10,25,22,40,1.70
2020,10,25,22,41,1.70
2020,10,25,22,42,1.70
2020,10,25,22,43,1.70
2020,10,25,22,44,1.80
2020,10,25,22,45,1.80
2020,10,25,22,46,1.80
2020,10,25,22,47,1.80
2020,10,25,22,48,1.80
2020,10,25,22,49,1.80
2020,10,25,22,50,1.80
2020,10,25,22,51,1.80
2020,10,25,22,52,1.80
2020,10,25,22,53,1.80